Regional Weather Roundup
Issued by NWS

Home | Current Version | Previous Version | Graphics & Text | Print | Product List | Glossary On
Versions: 1 2 3 4 5 6 7 8 9 10 11 12 13 14 15 16 17 18 19 20 21 22 23 24 25 26 27 28 29 30 31 32 33 34 35 36 37 38 39 40 41 42 43 44 45 46 47 48 49 50
000
ASUS43 KMKX 260411
RWRWI

WISCONSIN REGIONAL WEATHER ROUNDUP
NATIONAL WEATHER SERVICE MILWAUKEE/SULLIVAN WI
1000 PM CST TUE NOV 25 2014

NOTE: "FAIR" INDICATES FEW OR NO CLOUDS BELOW 12,000 FEET WITH NO
SIGNIFICANT WEATHER AND/OR OBSTRUCTIONS TO VISIBILITY.

WIZ001-002-006>008-014>016-023>028-260500-
NORTHWEST WISCONSIN

CITY           SKY/WX    TMP DP  RH WIND       PRES   REMARKS
SUPERIOR ARPT  CLOUDY    19  13  76 SW3       30.09R
ASHLAND        MOCLDY    11   8  88 S3        30.10R
HAYWARD        CLOUDY    17  13  84 CALM      30.06R
SIREN          CLOUDY    21  16  80 CALM      30.05S
CUMBERLAND     CLOUDY    21  16  79 CALM      30.05R
RICE LAKE      CLOUDY    22  16  78 E3        30.06S
CHETEK         CLOUDY    21  15  78 CALM      30.06R
LADYSMITH      CLOUDY    21  16  82 CALM      30.07S
EAU CLAIRE     CLOUDY    23  14  68 S5        30.06S WCI  17
MENOMONIE      CLOUDY    24  17  74 SE5       30.06R WCI  18
NEW RICHMOND   CLOUDY    24  17  76 S6        30.05R WCI  17
OSCEOLA        CLOUDY    24  19  78 CALM      30.08S
$$

WIZ003>005-009-010-017-018-260500-
NORTH CENTRAL WISCONSIN

CITY           SKY/WX    TMP DP  RH WIND       PRES   REMARKS
MANITOWISH WTR MOCLDY     1  -2  87 CALM      30.05R
ARBOR VITAE    CLEAR      5   2  86 CALM      30.04R
WOODRUFF       CLEAR      5   2  86 CALM      30.04R
RHINELANDER    CLEAR      2  -2  83 CALM      30.05R
EAGLE RIVER    CLEAR      2  -3  80 CALM      30.05R
LAND O LAKES   CLEAR     -5  -9  83 CALM      30.06R
PHILLIPS       CLOUDY    13  11  92 CALM      30.04R
TOMAHAWK       PTCLDY     0  -3  87 CALM      30.06R
MEDFORD        CLOUDY    19  15  84 S3        30.05R
MERRILL        PTCLDY     5   2  88 CALM      30.07R
$$

WIZ029-030-035-036-043>047-260500-
CENTRAL WISCONSIN

CITY           SKY/WX    TMP DP  RH WIND       PRES   REMARKS
WAUSAU         PTCLDY    11   8  88 E5        30.08R WCI   3
MOSINEE        PTCLDY    12  12 100 CALM      30.09R
MARSHFIELD     CLOUDY    21  15  78 SW7       30.07R WCI  12
STEVENS POINT  PTCLDY     3   0  88 CALM      30.11R
WAUPACA        CLEAR     12   8  84 CALM      30.13S FOG
WAUTOMA        CLEAR      5   1  83 CALM      30.13R
WISC RAPIDS    CLOUDY    18  14  84 CALM      30.12R
CAMP DOUGLAS   MOCLDY    14  14 100 CALM      30.11R
$$

WIZ011>013-019>022-031-037>040-048>050-260500-
NORTHEAST WISCONSIN

CITY           SKY/WX    TMP DP  RH WIND       PRES   REMARKS
ANTIGO         PTCLDY    -6  -9  86 CALM      30.08R
SHAWANO        CLEAR     16  13  89 CALM      30.14R
OCONTO         CLOUDY    19  17  91 CALM      30.15R
STURGEON BAY   CLOUDY    21  14  73 SW6       30.15R WCI  14
GREEN BAY      CLOUDY    18  14  84 SW3       30.15S
MANITOWOC      CLOUDY    21  17  84 S5        30.17R WCI  15
APPLETON       CLEAR     16  14  93 CALM      30.13R
CLINTONVILLE   CLEAR     10   9  92 CALM      30.13R FOG
OSHKOSH        CLEAR     15  12  88 S3        30.14R
$$

WIZ032>034-041-042-053>061-260500-
SOUTHWEST WISCONSIN

CITY           SKY/WX    TMP DP  RH WIND       PRES   REMARKS
LA CROSSE      MOCLDY    19  14  81 SE3       30.12R
SPARTA         CLOUDY    18  15  86 CALM      30.12R
VIROQUA        PTCLDY    15  12  88 S6        30.07S WCI   6
BOSCOBEL       CLEAR     10   6  84 CALM      30.15R
PRAIRIE DU CHI CLEAR     14  11  88 SE6       30.12F WCI   5
PLATTEVILLE    CLEAR     15  13  91 CALM      30.14R
$$

WIZ056-057-062-063-064-067-068-260500-
SOUTH CENTRAL WISCONSIN

CITY           SKY/WX    TMP DP  RH WIND       PRES   REMARKS
REEDSBURG      CLEAR     10   8  91 CALM      30.12R FOG
BARABOO/DELLS  CLEAR     10   8  89 CALM      30.12R
LONE ROCK      CLEAR     10   4  76 CALM      30.16R
MINERAL POINT  CLEAR     18  14  86 S6        30.11R WCI   9
MADISON        CLEAR     17  13  84 S9        30.13R WCI   6
MIDDLETON      CLEAR      7   3  84 CALM      30.13S
WATERTOWN      CLEAR     15  13  95 CALM      30.15R
MONROE         CLEAR     14  12  92 S9        30.12S WCI   2
JANESVILLE     PTCLDY    12  10  92 CALM      30.15S
$$

WIZ051-052-058>065-066-070>072-260500-
SOUTHEAST WISCONSIN

CITY           SKY/WX    TMP DP  RH WIND       PRES   REMARKS
MILWAUKEE      MOCLDY    19  14  81 SW5       30.17S WCI  12
WAUKESHA       PTCLDY    16  14  93 CALM      30.15F
MILWAUKEE/TIMM CLOUDY    21  16  79 SW5       30.17S WCI  15
RACINE         CLOUDY    21  15  78 SW6       30.19R WCI  13
BURLINGTON     CLEAR     12  11  95 S3        30.16F
KENOSHA        CLOUDY    19  15  84 SW3       30.18S
FOND DU LAC    CLEAR     16  13  88 S6        30.14R WCI   7
SHEBOYGAN      CLOUDY    20  15  81 SW5       30.16R WCI  13
WEST BEND      CLOUDY    21  16  79 S5        30.15S WCI  15
JUNEAU         CLOUDY    17  15  89 SE7       30.14S WCI   8
$$

LSZ147-162-260500-
LAKE SUPERIOR

STATION/POSITION TIME  TEMP    WIND        PRES    WAVE
                       AIR SEA DIR/SP/G            HT/PER
                 (UTC) (F)     (DEG/KT/KT) (MB)    (FT/S)
DEVILS ISLAND    0400   23     230/ 11/ 13 1019.7R
PORT WING        0340   16     130/  2/  4 1018.6R
SAXON HARBOR     0300   12     200/  2/  9 1018.6
$$

LMZ867-665-643>646-260500-
LAKE MICHIGAN

STATION/POSITION TIME  TEMP    WIND        PRES    WAVE
                       AIR SEA DIR/SP/G            HT/PER
                 (UTC) (F)     (DEG/KT/KT) (MB)    (FT/S)
CHAMBERS ISLAND  0300   23     230/  6/ 11 1020.0R
N MID LAKE BUOY  0350   28 42  230/  4/  8 1021.2R   1/ 5
NORTHPORT PIER   0403   25     220/  3/  7 1020.7R
ALGOMA LAKESHORE 0313          260/  7/ 10   N/A
KEWAUNEE LAKESHO 0300   21     270/  3/  5 1019.9R
SHEBOYGAN LAKESH 0400   21 36  260/  6/  7 1022.9R
PORT WASHINGTON  0340   23     240/  5/  7 1022.4R
MILWAUKEE LAKESH 0300   22     250/  6/  8   N/A
S MID LAKE BUOY  0350   28 42  210/ 12/ 16 1022.9R   2/ 6
KENOSHA   LAKESH 0400   20     210/  5/  8 1022.4R
$$

TC  - TEMPERATURE IN CELSIUS
VSB - VISIBILITY IN STATUTE MILES
WCI - WIND CHILL INDEX
HX  - HEAT INDEX



USA.gov is the U.S. government's official web portal to all federal, state and local government web resources and services.